ECMWFFLT2_sfc_temp_084.txt.gz
Temp
62 62 62 62 61 61 61 61 61 60 60 60 59 59 58 58 57 58 58 58 58 58 58 58 58 58 58 58 58 58 57 57 57 57 57 56 56 55 55 55 55 55 54 54 53 52 52 52 52 51 51 44
61 60 60 60 60 59 60 60 60 59 59 58 58 58 57 56 56 57 57 57 57 57 56 56 57 57 58 57 57 57 57 57 57 56 56 55 55 54 54 54 54 54 54 53 53 52 52 52 51 51 52 44
56 59 59 59 59 59 59 58 59 59 58 57 56 56 55 55 55 55 56 56 56 56 56 55 55 56 57 57 57 56 56 56 56 56 55 55 54 54 53 53 53 53 53 52 52 52 51 51 51 51 49 42
53 57 58 58 58 58 57 57 57 57 57 56 56 55 55 54 53 53 52 55 52 55 54 54 52 55 56 56 56 55 55 55 55 55 55 54 54 53 53 53 53 51 51 52 52 51 51 50 51 45 42 43
54 54 56 56 57 57 57 56 56 56 57 56 55 54 53 53 49 48 48 50 49 54 48 52 52 53 54 55 55 55 54 54 54 55 55 54 54 53 52 52 52 51 51 51 51 51 50 51 45 43 42 42
55 52 55 53 51 51 53 55 56 52 50 54 50 54 51 48 50 50 50 49 53 48 48 48 52 52 53 54 55 55 54 53 54 54 54 54 53 53 52 52 46 45 49 52 51 50 51 44 41 43 43 41
54 53 52 53 52 53 57 53 51 51 52 52 52 49 50 51 52 51 49 47 50 49 54 50 52 52 53 54 55 54 54 53 53 54 54 54 53 53 53 47 42 42 40 41 51 50 44 40 40 41 41 41
54 53 53 51 51 51 51 52 51 50 51 49 50 50 49 49 50 49 48 51 51 51 47 47 53 53 53 53 53 53 51 52 53 53 54 54 53 51 47 42 42 42 40 40 41 40 39 40 41 40 40 40
51 53 51 52 52 51 51 51 50 50 49 50 49 49 48 49 49 50 49 49 46 46 46 47 45 45 45 45 43 51 43 45 47 49 44 45 47 43 43 43 42 43 40 40 40 39 40 40 39 38 39 38
51 53 50 51 51 52 51 51 51 51 50 49 49 48 48 48 48 47 47 48 48 47 48 46 46 46 46 47 46 47 44 43 46 44 45 45 43 42 43 44 43 42 41 39 39 38 38 39 38 37 37 39
50 50 51 49 50 50 49 49 51 48 48 50 48 48 48 48 47 47 46 47 46 47 46 46 45 45 46 46 45 46 45 45 45 43 43 43 43 43 43 42 41 41 41 40 39 39 38 38 37 36 38 37
50 49 50 51 49 50 50 49 48 47 48 49 48 48 48 49 48 46 45 47 45 45 46 47 45 44 44 44 44 45 46 44 44 43 43 43 43 43 42 42 41 40 41 40 40 39 39 37 37 36 36 36
50 50 50 49 48 47 52 49 48 47 49 48 47 48 47 47 46 46 46 45 45 46 46 45 46 44 44 44 45 45 44 44 43 42 42 42 42 42 42 41 42 41 41 40 39 39 38 38 37 36 38 37
49 49 48 48 48 47 49 46 48 48 46 47 46 45 45 46 45 44 43 44 43 44 44 44 45 45 45 44 44 44 43 44 44 42 41 41 42 41 41 41 43 41 40 40 39 39 39 38 37 36 36 36
50 50 48 48 47 47 47 47 48 46 46 44 45 45 44 44 45 45 43 43 42 42 42 43 44 44 45 43 43 45 43 43 42 42 41 43 41 42 40 41 42 43 42 40 40 39 40 39 40 38 39 38
48 47 47 47 46 45 47 47 45 44 46 45 43 44 43 43 43 44 42 42 43 42 41 42 42 42 43 42 42 44 42 42 43 42 43 43 43 43 42 42 41 43 40 41 41 40 40 39 39 38 38 39
47 47 47 46 46 46 47 46 46 45 45 45 45 44 43 43 43 43 42 41 42 42 40 41 41 41 42 44 43 43 43 43 42 42 41 42 42 41 41 40 41 42 42 40 40 39 40 40 39 39 37 39
46 46 45 45 45 46 45 44 43 44 45 44 44 44 43 42 42 41 40 40 40 40 40 41 41 40 41 40 41 41 41 40 40 40 41 41 41 42 42 39 40 39 40 39 39 41 40 39 39 39 40 37
47 47 45 43 44 44 44 44 44 43 44 42 43 43 41 41 41 40 41 40 39 39 39 39 39 40 39 40 40 39 40 40 40 40 40 40 39 39 38 38 40 40 40 38 40 39 41 40 41 38 37 37
46 46 46 44 45 44 42 41 43 42 42 42 41 41 40 40 41 40 40 39 39 38 39 38 38 39 39 39 38 38 38 39 38 39 39 39 39 36 37 38 38 39 39 39 40 41 40 40 40 39 37 39
43 44 44 45 45 45 43 41 40 40 41 41 40 39 38 39 40 39 38 38 38 37 37 37 37 38 38 38 37 36 36 37 38 38 38 38 39 37 35 36 36 37 38 38 39 39 39 39 40 38 38 39
42 42 42 42 42 43 43 43 41 40 39 39 37 38 37 38 38 38 37 37 37 35 37 36 36 37 37 37 35 35 35 36 37 36 36 35 36 37 36 34 35 35 36 37 38 38 38 39 39 39 40 40
40 40 40 41 41 41 41 40 39 39 37 37 37 36 37 37 36 36 35 35 35 34 35 35 35 35 36 35 33 33 34 34 35 35 35 34 34 36 35 34 35 35 36 36 36 36 37 38 39 39 40 41
37 37 36 36 37 37 38 39 38 39 36 37 35 37 36 35 35 34 34 34 34 33 33 33 33 34 34 33 32 31 31 32 32 32 32 32 33 33 34 36 35 35 35 34 33 35 37 38 39 39 41 41
34 33 33 33 34 34 36 37 39 38 37 36 35 36 36 35 34 33 33 33 32 32 33 32 32 32 31 31 31 30 30 32 32 33 32 32 33 32 31 31 34 34 34 31 31 33 33 34 36 39 40 40
31 32 31 31 31 33 34 35 35 35 36 36 36 36 35 34 33 33 33 33 32 32 31 30 30 30 30 30 29 30 31 32 33 32 31 31 28 31 30 29 32 33 33 29 27 28 29 29 34 37 38 38
29 31 32 31 31 32 32 35 36 36 36 35 34 34 34 33 33 33 32 33 33 32 31 30 30 29 29 28 29 28 28 29 30 31 30 30 29 27 30 31 33 31 32 26 29 29 28 26 26 31 32 35
30 31 32 32 32 33 33 31 34 35 35 33 33 32 34 33 33 33 32 32 32 32 32 31 30 30 28 28 29 28 28 28 29 30 30 30 30 30 26 28 29 33 33 30 29 21 24 24 27 23 25 28
30 30 30 30 31 32 31 32 31 30 29 31 31 31 31 31 33 32 32 32 32 32 31 29 28 28 28 27 28 28 27 27 28 29 29 29 28 27 26 25 27 29 32 31 32 27 24 20 18 19 25 29
29 29 28 27 26 25 26 25 27 26 26 27 27 28 31 31 32 32 32 31 30 31 30 27 27 27 26 26 26 27 26 27 27 27 27 27 27 26 27 26 25 25 30 31 32 31 29 29 22 23 25 26
29 27 28 27 26 26 25 24 26 28 28 28 28 29 29 30 31 31 31 31 30 30 29 27 26 26 25 25 26 26 26 26 26 26 25 27 26 26 27 26 23 24 25 28 29 30 30 30 30 28 26 21

ECMWFFLT2_sfc_temp_087.txt.gz
Temp
64 63 64 64 63 63 62 62 61 61 60 60 60 59 59 58 58 58 59 59 59 59 59 59 59 59 59 59 58 58 58 58 58 58 57 57 57 56 56 56 56 55 55 55 54 54 54 53 53 52 52 40
62 62 62 62 61 61 61 60 60 59 59 59 59 58 58 57 57 57 58 58 58 58 57 57 58 58 59 58 58 58 57 57 58 57 57 57 56 56 56 55 55 55 54 54 54 54 54 53 52 52 52 38
57 59 59 59 59 59 59 59 59 59 58 58 57 57 56 56 55 56 57 57 57 57 57 56 56 57 58 58 58 57 57 57 57 57 57 57 56 56 56 55 55 54 54 54 54 54 53 53 52 52 45 38
50 56 58 58 58 58 58 58 58 58 57 56 56 55 55 55 52 53 52 56 52 56 56 55 53 56 57 58 58 57 57 56 56 56 56 56 56 56 55 55 54 54 53 53 53 53 53 52 51 41 36 37
49 52 56 56 57 57 57 57 57 57 57 56 55 54 53 53 48 44 45 48 46 55 47 53 53 55 56 57 57 57 56 56 56 56 56 56 56 55 55 54 54 53 53 54 54 53 52 52 41 38 39 39
50 49 52 47 48 48 51 55 56 51 47 52 46 54 49 44 45 45 43 44 51 46 48 48 53 53 54 56 56 57 56 56 56 56 56 56 56 55 54 54 44 41 47 52 52 52 53 42 35 35 38 38
50 48 47 46 46 48 53 50 48 46 47 44 44 45 44 45 44 45 44 43 46 46 51 47 53 53 55 56 56 56 55 55 55 56 56 56 55 55 55 45 38 37 35 35 48 49 42 35 34 35 36 37
46 47 46 46 46 45 45 46 46 44 45 46 46 46 46 43 45 45 42 51 51 49 42 43 50 53 53 52 53 54 51 52 51 54 55 54 54 51 44 38 38 38 36 37 35 34 35 33 34 35 35 36
46 47 46 46 44 44 43 45 45 46 46 46 45 45 45 45 46 45 44 42 43 42 43 42 40 40 40 40 39 48 40 40 40 45 41 40 43 41 41 38 38 36 37 38 37 36 36 34 35 35 35 35
48 48 46 47 48 47 46 46 45 45 45 45 45 44 45 45 44 44 43 43 43 43 43 43 42 42 41 40 40 41 42 39 38 38 38 39 38 38 38 37 39 37 39 39 37 38 35 38 34 33 33 35
46 46 46 46 47 46 45 45 45 44 44 44 44 44 45 43 43 43 42 43 42 43 42 43 42 43 43 43 42 42 40 38 38 38 38 38 39 36 38 39 37 37 37 36 37 38 35 35 36 35 33 35
46 46 46 46 46 46 48 45 44 43 43 44 44 44 44 44 42 41 41 42 42 41 42 42 42 41 42 41 42 42 43 42 38 37 37 37 39 40 39 38 37 37 37 37 35 36 37 36 37 35 33 34
46 46 46 45 45 44 47 43 42 42 43 43 43 43 43 43 42 41 40 40 41 41 41 41 41 41 41 41 41 42 41 40 39 39 38 39 39 39 39 37 38 37 38 37 37 36 36 35 35 35 35 34
45 45 44 43 43 43 44 42 42 41 41 42 42 42 42 42 42 40 39 39 40 39 39 40 40 41 41 41 42 40 39 39 38 38 38 39 40 40 39 40 41 39 39 39 39 36 37 36 36 36 34 35
45 45 44 44 43 42 42 43 43 42 41 41 41 41 40 41 41 40 39 39 38 38 38 39 39 39 40 40 39 39 39 39 39 38 38 39 38 38 38 39 39 39 39 38 38 38 37 37 37 36 37 36
43 43 43 43 43 42 42 43 41 41 41 40 39 40 39 40 39 40 38 38 38 38 37 37 38 38 38 37 38 38 38 38 39 38 38 38 39 38 38 37 37 39 37 37 38 38 38 38 37 35 36 37
42 42 42 42 41 41 42 41 41 40 39 39 39 39 39 39 39 38 37 37 36 37 35 36 36 36 37 36 37 37 37 37 38 38 38 38 39 39 39 38 37 37 37 36 37 37 38 37 37 37 36 36
41 40 40 41 41 41 40 40 39 39 38 39 38 38 38 37 38 37 36 36 35 35 35 35 35 35 36 36 36 36 37 36 36 36 36 37 36 37 36 35 35 34 35 35 35 36 37 36 37 37 36 35
40 40 39 39 40 39 38 39 38 37 37 37 37 37 36 36 36 35 35 35 34 34 34 34 34 34 35 35 35 35 35 35 35 34 35 35 34 33 34 34 35 35 34 34 35 36 37 37 37 37 37 37
39 39 39 38 40 39 38 38 37 36 36 36 35 35 35 35 35 34 34 34 33 32 33 32 32 33 34 34 34 33 33 34 33 33 33 34 33 32 32 34 33 34 34 35 36 36 36 36 37 36 35 36
36 37 37 37 37 38 37 37 36 35 35 35 35 34 34 34 35 33 33 33 32 31 32 31 31 32 33 33 32 31 31 31 32 31 32 32 33 32 31 31 32 33 33 34 35 36 36 37 37 37 37 37
35 36 37 36 36 38 37 37 37 34 35 34 34 35 34 33 33 34 32 32 32 30 32 31 30 31 32 31 30 29 30 30 31 31 30 30 32 32 31 31 31 31 33 34 34 35 35 36 37 37 37 38
35 36 36 35 36 35 36 36 36 34 33 32 33 34 34 33 32 33 33 32 31 30 31 30 30 30 30 29 28 28 28 28 30 30 30 29 29 31 31 30 30 31 32 32 32 32 33 34 35 36 36 37
32 32 32 31 33 33 34 35 36 36 33 33 33 34 33 32 32 32 32 32 31 30 30 29 29 29 29 28 28 27 27 27 27 27 28 28 29 28 30 31 30 30 30 30 30 31 33 33 34 35 36 36
29 28 29 30 29 29 32 33 34 35 35 33 33 33 33 32 32 31 31 32 31 30 31 30 29 28 28 28 28 27 26 27 27 29 29 28 28 28 27 28 30 29 30 27 28 30 29 30 32 34 36 36
29 29 28 28 28 29 30 31 31 32 33 32 33 32 32 31 30 30 29 30 30 30 30 28 27 27 26 27 27 27 27 27 29 28 28 28 26 28 26 25 29 28 29 24 24 24 25 28 30 32 32 33
28 30 30 30 29 30 29 33 33 33 32 32 30 31 31 30 30 30 29 29 29 28 28 27 25 26 26 26 27 25 24 25 25 26 26 26 25 24 26 27 29 28 29 23 26 25 25 21 25 28 30 28
30 30 31 31 31 31 31 30 32 33 32 31 30 29 30 30 30 30 28 28 28 28 27 25 24 25 25 25 26 24 23 24 24 25 25 24 24 24 20 23 25 29 29 27 25 17 21 21 24 20 24 27
29 29 28 29 30 30 29 30 29 29 28 29 29 29 28 28 30 29 29 29 28 28 27 25 24 24 25 25 25 25 23 23 24 25 25 24 24 23 21 20 22 25 28 27 29 24 20 16 15 16 23 26
28 27 27 26 25 24 25 24 25 24 25 25 26 26 28 28 29 29 28 28 28 27 28 25 24 24 24 24 24 24 24 24 24 24 23 24 24 22 23 22 21 20 25 26 27 27 26 25 17 19 21 23
27 25 26 26 25 25 24 23 24 27 27 26 26 27 26 27 28 28 27 27 27 27 27 25 24 24 24 24 24 24 24 23 23 23 23 24 23 22 23 22 18 19 20 24 24 27 26 26 26 24 21 16

ECMWFFLT2_sfc_temp_090.txt.gz
Temp
64 64 64 64 64 63 62 62 62 61 60 60 60 60 59 59 59 59 59 60 60 60 59 59 59 60 60 59 59 59 58 58 58 58 58 58 57 57 57 57 56 56 56 56 55 55 55 54 53 53 50 39
62 62 63 62 62 62 61 61 60 60 60 59 59 59 58 57 57 58 58 58 58 59 58 58 58 59 59 59 59 58 58 58 58 58 58 58 57 57 57 56 56 56 55 55 55 55 54 54 53 52 50 36
56 59 59 60 60 60 60 59 59 59 58 58 57 57 56 56 56 56 56 57 57 58 58 57 56 58 59 59 59 58 58 58 58 57 58 57 57 57 56 56 56 55 55 55 55 55 54 53 52 51 43 35
50 56 58 58 58 58 58 58 58 58 57 56 56 56 56 55 51 51 50 56 51 56 56 55 54 57 58 58 58 58 58 58 58 57 57 57 57 56 56 55 54 54 54 54 54 54 53 52 50 38 34 35
48 51 56 56 58 58 58 57 57 57 54 54 51 52 51 49 44 41 42 44 43 54 46 53 54 55 56 57 58 58 57 57 57 57 57 57 57 56 55 54 53 52 52 54 54 53 52 51 40 35 35 36
48 49 52 46 47 48 50 52 49 46 46 48 44 48 45 44 45 43 41 40 48 44 45 45 53 54 55 57 57 57 57 56 56 57 57 57 57 56 55 54 40 39 46 51 52 52 51 39 32 33 34 34
47 45 44 44 44 46 50 47 46 43 44 42 43 43 43 44 43 43 43 44 46 45 49 48 51 53 54 54 55 55 55 55 55 55 56 56 56 55 54 41 36 34 32 31 47 47 37 32 32 31 32 33
44 44 44 43 42 43 43 43 43 43 43 43 42 42 42 42 43 42 41 45 46 45 42 42 46 48 48 48 49 51 48 49 49 53 53 53 53 47 41 35 35 34 31 32 31 32 33 32 31 32 33 33
44 44 45 44 44 43 42 42 42 42 42 42 42 41 42 41 42 40 40 40 40 40 40 40 40 40 41 41 40 46 40 40 39 41 36 37 39 35 36 36 36 33 35 36 35 33 33 32 32 33 33 32
46 45 44 44 44 43 42 42 42 42 42 42 41 41 41 42 40 40 39 39 39 39 39 39 39 39 39 39 39 41 39 38 38 37 36 36 37 36 34 33 33 33 36 36 34 35 33 34 33 33 33 31
45 43 43 43 44 42 41 41 41 40 41 41 41 40 41 40 39 38 38 38 38 38 38 38 38 38 38 38 38 39 37 37 37 36 36 37 37 35 36 36 35 34 34 33 33 34 33 33 34 34 33 31
45 43 43 43 43 42 43 41 40 39 39 40 40 40 40 40 38 37 37 37 37 37 37 37 37 37 38 37 37 38 37 36 36 36 36 37 37 37 37 36 36 36 36 36 33 33 34 33 34 34 32 33
43 43 42 41 41 41 43 39 39 39 39 39 39 39 39 39 37 36 36 36 36 36 36 36 36 36 36 36 37 37 36 36 35 35 35 36 35 36 36 35 36 36 37 36 37 36 35 33 34 34 34 34
41 41 40 40 39 40 41 39 38 38 38 38 38 37 37 38 37 35 35 35 35 35 35 35 35 35 35 35 36 36 35 35 34 34 34 35 36 35 35 36 37 37 36 36 36 35 36 35 35 34 32 33
39 39 39 39 39 39 38 38 38 37 37 36 36 36 36 36 37 36 34 34 34 34 34 34 34 34 34 34 35 35 34 35 34 33 33 34 34 34 34 34 35 35 34 34 35 35 34 35 35 35 35 33
37 37 37 38 38 38 37 38 36 36 35 36 35 35 35 35 35 36 33 33 33 33 32 33 33 33 33 33 34 34 33 34 34 34 34 34 34 34 34 33 34 34 33 33 34 34 34 35 34 34 34 34
36 36 36 36 36 37 37 36 36 35 35 35 35 35 34 34 34 34 32 32 32 33 31 31 31 32 32 32 33 33 33 33 33 33 33 33 34 33 33 33 33 34 33 33 33 33 34 34 33 34 34 33
35 35 35 36 35 36 36 35 34 34 34 34 34 33 33 33 33 33 32 31 31 31 30 30 31 30 31 32 32 32 32 31 31 31 31 32 31 33 32 31 31 31 31 33 33 33 34 33 33 33 33 34
35 35 34 34 34 34 34 34 33 32 33 32 33 33 32 32 33 32 31 31 30 30 30 29 29 30 30 31 30 30 30 30 30 30 29 30 29 30 30 30 31 31 30 31 32 33 34 33 34 34 34 34
34 34 34 33 36 34 33 32 32 31 32 32 31 31 31 31 32 32 31 31 30 29 30 29 29 29 29 29 29 28 29 29 28 28 28 29 29 28 28 30 29 30 30 31 31 33 33 33 34 34 34 34
32 33 33 34 34 34 33 32 31 30 31 32 31 30 30 30 32 31 31 31 30 29 30 29 28 28 28 28 27 27 27 27 28 27 27 27 29 28 27 27 27 29 29 30 31 31 31 32 33 33 34 34
32 32 33 32 32 35 34 33 32 31 30 30 29 30 29 29 30 32 30 30 29 28 30 29 27 27 27 27 26 26 26 26 27 27 27 26 27 28 27 26 27 27 28 29 29 30 30 31 32 32 33 34
30 31 31 31 31 32 32 32 31 32 29 29 30 29 30 30 30 31 30 30 29 28 29 27 27 26 26 26 25 25 25 25 26 26 26 25 26 27 27 26 26 27 27 27 28 28 29 30 30 32 33 34
27 28 28 28 29 29 31 31 31 32 30 30 29 30 30 29 29 28 29 28 28 27 28 26 26 25 25 25 25 24 23 24 24 24 25 24 26 25 26 27 27 27 27 27 26 28 29 29 30 30 32 33
25 24 25 27 27 27 29 30 32 32 32 31 29 30 30 29 29 28 28 29 27 27 28 26 25 25 25 25 25 24 23 24 24 25 25 24 25 24 23 24 26 26 27 24 25 27 26 27 29 31 33 31
25 25 24 24 24 25 26 27 28 28 31 30 30 30 29 28 28 28 28 29 28 28 26 24 24 24 24 24 24 24 24 24 25 24 23 24 21 24 22 21 25 24 26 21 21 21 21 26 28 29 29 29
24 25 25 25 25 25 25 28 29 28 29 29 27 28 29 28 27 27 27 26 27 27 25 24 23 23 24 24 25 23 22 22 22 23 22 22 21 20 22 22 25 24 25 20 23 22 22 17 23 25 28 27
26 26 26 25 25 26 26 25 29 28 27 25 26 25 27 26 27 27 26 26 25 26 23 23 23 23 23 23 24 23 22 22 22 22 22 22 22 22 17 20 20 25 24 23 21 11 16 17 20 16 22 23
24 25 23 24 24 25 24 24 24 23 23 25 25 25 24 24 26 26 25 25 25 25 22 22 22 22 23 23 23 23 22 22 22 22 22 22 21 20 19 17 20 21 24 23 24 19 16 11 12 12 19 21
24 25 23 22 21 20 21 20 20 20 20 22 22 22 23 23 24 24 24 24 24 24 24 22 22 21 21 21 21 22 22 22 22 22 21 22 22 20 21 19 18 17 22 23 23 23 22 21 12 14 17 19
26 22 22 22 21 21 20 19 21 21 22 22 23 23 21 22 23 22 23 23 23 22 23 22 21 21 21 21 20 22 21 20 20 20 20 22 21 20 21 20 16 16 18 22 21 23 22 22 22 21 17 10

ECMWFFLT2_sfc_temp_096.txt.gz
Temp
60 60 60 59 59 59 59 59 59 59 58 58 58 57 57 56 56 57 57 58 58 58 57 58 59 60 61 61 61 61 61 60 60 60 60 60 59 59 58 58 58 57 57 57 57 56 55 54 53 52 49 36
57 57 58 58 57 57 57 57 57 56 56 55 55 54 53 52 52 54 54 55 56 56 55 55 56 59 60 60 60 59 59 59 59 59 59 59 59 59 58 57 57 57 57 57 56 56 55 54 53 51 49 36
51 55 55 55 55 55 55 55 55 54 54 53 52 51 50 49 49 49 51 51 52 53 53 53 53 56 58 58 58 58 58 58 58 58 59 59 58 58 57 57 56 56 56 56 56 55 54 53 52 50 41 34
46 51 54 53 53 53 53 53 52 52 51 50 49 49 48 47 43 44 44 48 45 49 49 50 50 53 55 56 56 56 55 56 57 57 57 57 57 56 55 54 53 53 54 54 54 54 53 52 50 37 32 32
44 47 48 48 51 51 51 49 49 48 46 45 46 45 45 43 41 39 40 41 41 45 43 47 48 50 51 53 53 53 52 53 54 55 55 55 54 54 53 51 47 48 50 52 52 52 51 50 39 36 34 34
42 42 44 41 42 43 44 45 44 42 40 42 38 42 40 39 40 39 39 40 42 40 42 43 47 47 48 49 50 50 49 49 51 52 52 52 52 51 49 47 37 37 42 46 48 48 47 39 35 35 34 34
42 41 41 40 40 41 43 42 40 38 39 37 38 37 37 38 37 37 37 40 41 40 42 42 44 45 46 46 47 47 45 46 47 48 49 49 49 47 45 37 35 35 34 34 42 41 36 33 34 34 34 34
41 40 40 39 39 39 39 38 38 38 37 37 37 37 37 36 37 36 35 39 40 39 36 36 40 42 41 41 42 43 39 41 42 44 43 44 44 40 37 34 34 34 34 35 34 33 34 33 33 33 34 33
40 39 39 39 38 38 38 37 37 37 37 36 36 36 36 35 36 35 35 34 34 34 34 34 34 34 34 34 33 39 33 35 35 36 34 34 36 34 34 34 34 33 34 34 33 33 33 32 32 32 33 32
40 39 38 38 38 37 36 36 36 36 36 36 35 35 36 36 34 34 34 34 33 33 33 33 33 32 32 32 32 35 32 33 33 32 32 33 33 33 33 33 33 33 33 32 32 32 32 32 32 31 32 31
37 37 37 37 38 36 35 35 34 34 34 34 34 34 36 33 33 33 32 32 32 31 32 32 32 31 31 31 31 33 31 31 31 31 31 31 31 31 32 32 32 32 32 31 31 31 31 31 31 31 31 31
36 35 35 37 37 36 37 35 33 33 33 33 33 34 34 35 31 31 31 31 31 30 30 31 31 30 31 31 31 32 31 30 30 30 31 31 30 31 31 31 31 31 32 31 31 30 31 31 31 31 30 30
34 34 34 34 34 34 37 33 32 32 32 32 33 32 32 33 30 30 30 29 29 29 29 29 29 29 29 30 30 30 29 30 29 29 29 29 29 30 30 30 30 31 30 30 30 30 30 30 30 31 31 30
33 33 32 32 32 33 34 31 32 32 31 31 31 31 31 32 31 29 29 28 28 28 28 28 28 29 28 28 29 29 28 29 28 28 28 28 28 29 28 29 30 31 29 29 30 29 30 30 30 30 29 30
32 33 32 32 31 31 31 31 32 31 30 30 30 30 29 30 31 30 28 28 27 27 27 27 27 27 27 27 28 28 27 28 28 27 27 27 27 28 27 28 29 29 28 28 29 29 29 29 29 29 29 29
31 31 31 31 30 30 30 31 29 29 29 30 28 29 28 28 29 31 27 27 27 28 26 26 26 26 26 26 26 27 27 27 27 27 27 27 27 27 27 27 27 28 28 27 28 28 28 29 28 29 29 29
30 30 30 30 30 31 31 29 30 28 29 28 29 28 28 27 29 29 27 26 27 28 25 26 25 25 26 26 26 26 27 26 26 26 26 26 28 26 27 27 26 28 27 26 28 28 28 28 28 29 28 29
29 28 30 31 29 30 29 28 28 29 28 29 28 28 27 27 29 27 27 26 25 26 25 25 25 24 24 25 25 26 26 25 25 25 25 25 25 27 26 25 26 26 26 26 27 27 28 28 28 28 28 29
29 29 28 27 28 28 28 28 27 26 27 26 27 27 26 27 28 27 26 26 25 25 24 24 24 24 23 25 25 24 25 24 24 24 24 25 23 24 24 25 25 25 25 25 26 26 28 27 28 28 28 29
27 28 27 27 31 28 26 27 26 26 26 25 25 26 26 25 27 26 25 25 25 24 24 23 23 23 24 24 24 23 23 24 23 24 23 24 24 22 23 24 23 25 24 25 25 26 26 27 28 28 28 28
26 26 26 27 26 27 26 26 25 25 25 25 25 24 24 24 27 24 24 24 24 24 23 23 23 22 23 24 22 22 22 22 23 22 23 22 24 23 21 22 22 23 23 23 24 25 25 26 27 27 27 28
25 26 26 25 25 29 26 25 25 25 25 24 24 24 23 24 25 25 23 23 23 22 25 23 22 22 22 22 21 21 21 21 22 22 22 21 22 23 21 21 21 21 22 23 23 24 25 26 26 26 27 28
25 25 25 24 25 25 25 25 25 25 24 24 25 23 23 24 24 25 23 23 23 22 22 21 21 21 21 22 21 21 21 21 22 22 21 20 20 22 21 21 21 21 22 22 22 23 24 26 27 28 29 30
24 23 26 23 24 23 25 24 26 25 23 23 24 25 23 22 22 22 24 22 22 21 22 20 20 20 21 21 20 20 19 20 20 20 20 19 20 19 21 22 21 21 21 21 21 23 25 26 27 28 29 30
22 22 22 22 22 23 23 24 26 25 24 23 24 23 23 23 22 21 22 23 21 21 22 21 20 20 20 20 21 20 19 20 20 21 20 19 20 19 18 18 21 20 21 18 19 22 21 23 26 28 30 28
24 23 22 22 22 22 22 22 23 22 23 24 24 23 23 23 21 21 21 22 22 22 20 19 19 19 19 19 19 20 20 20 21 20 18 19 16 19 17 16 20 18 20 13 15 15 15 20 24 26 26 26
23 22 24 22 22 22 21 22 22 23 23 24 22 22 22 22 21 21 21 20 22 21 20 19 19 19 18 18 20 18 18 18 17 18 17 17 16 15 17 17 20 18 19 13 17 16 17 11 20 23 23 24
24 24 23 23 22 22 22 22 25 23 22 21 21 21 21 22 21 21 20 20 21 21 20 19 18 18 18 18 19 18 17 17 17 17 16 17 17 17 12 15 15 20 18 17 16 5 10 11 15 7 17 18
25 25 23 22 23 23 22 23 21 21 22 21 22 22 21 20 21 21 20 20 19 21 19 19 18 18 18 18 18 18 17 17 17 16 16 17 16 15 14 12 15 15 18 17 19 13 10 4 5 3 13 16
25 25 23 22 22 20 20 19 19 19 19 20 19 19 20 20 20 20 20 19 19 20 21 19 18 18 17 18 18 19 17 17 16 16 16 17 16 14 16 14 13 11 17 18 17 17 17 16 4 7 10 13
25 23 23 22 22 22 21 20 21 20 21 20 21 21 20 20 20 20 19 20 18 19 20 19 18 18 18 18 17 19 17 16 16 16 16 17 16 15 16 15 9 11 12 15 14 17 17 16 16 16 11 2

ECMWFFLT2_sfc_temp_099.txt.gz
Temp
60 60 60 60 60 59 59 59 58 58 58 58 57 56 56 56 56 56 56 57 57 57 56 57 59 59 60 59 59 59 59 59 59 59 60 60 59 59 58 57 57 57 57 57 56 56 55 54 53 52 51 49
58 58 58 58 58 58 57 57 57 56 56 55 54 53 52 52 52 53 53 54 54 55 54 54 56 57 58 58 57 57 57 58 58 58 58 58 57 56 56 56 55 55 56 56 55 55 54 53 52 51 49 48
56 56 56 56 55 55 55 55 54 54 53 52 52 51 49 48 48 49 50 50 51 52 52 52 53 55 56 56 55 55 55 56 56 56 56 56 55 54 54 53 53 53 54 54 54 53 52 51 49 48 47 47
49 52 53 53 52 52 51 51 50 50 50 49 48 47 47 45 44 45 46 47 47 48 49 49 50 52 54 54 53 53 53 54 54 54 54 54 53 52 51 50 49 50 51 52 52 51 50 49 47 45 46 45
47 47 46 48 49 48 48 48 47 46 45 45 45 44 44 43 43 43 43 44 44 45 45 47 47 48 50 51 51 50 50 51 52 52 52 52 51 50 48 47 45 46 47 48 49 48 47 46 45 44 43 44
43 44 44 44 44 45 44 44 43 43 42 42 42 42 42 42 43 42 43 43 42 43 43 44 45 45 47 48 48 48 47 47 49 49 50 49 49 48 46 44 42 42 43 44 46 45 44 43 44 43 43 43
43 43 43 42 42 42 43 42 41 41 41 41 41 41 41 42 41 41 42 42 41 40 41 42 43 43 44 44 45 44 43 44 45 46 46 46 45 45 43 41 41 42 42 42 42 42 42 43 42 42 43 43
43 43 43 42 42 42 41 41 40 40 40 40 40 40 41 41 40 39 40 39 39 39 39 39 39 40 39 39 41 41 39 40 41 41 41 42 42 40 40 40 40 41 41 41 42 42 42 42 41 41 42 42
42 42 42 41 41 40 40 40 40 40 39 39 39 39 40 39 39 38 39 38 38 38 38 38 38 38 38 38 37 38 37 38 38 38 37 38 39 39 38 38 39 39 39 40 40 40 41 40 41 41 42 42
42 41 41 41 40 40 39 39 39 39 39 38 38 39 39 39 38 38 37 37 37 37 37 37 37 37 37 36 36 37 36 37 37 37 37 37 37 38 38 38 38 38 38 38 38 39 39 39 39 40 40 41
40 40 41 41 40 39 38 38 38 37 38 37 37 37 38 37 37 37 36 36 36 35 36 36 36 36 36 35 36 37 36 35 36 36 36 36 36 37 37 37 37 38 37 37 37 37 37 38 38 39 39 40
39 39 39 40 39 39 38 37 37 37 37 36 37 37 38 37 36 36 35 35 35 35 35 35 35 35 35 35 35 36 36 34 35 35 35 35 35 36 36 36 36 37 37 37 37 36 37 37 38 38 38 39
38 38 38 38 38 38 38 36 36 36 36 36 36 36 36 37 35 35 35 34 34 35 34 34 34 34 34 34 34 34 34 34 33 34 34 34 34 35 34 35 35 36 36 37 37 36 36 36 37 37 37 38
36 37 36 36 36 37 37 36 36 35 35 36 35 35 35 36 35 34 34 34 34 33 33 33 33 33 33 33 34 33 33 34 33 33 33 33 33 33 33 34 34 35 35 35 35 36 35 35 36 37 37 37
36 36 36 35 36 36 35 35 35 35 35 35 35 35 34 34 35 34 34 34 33 33 33 33 32 32 33 32 33 33 32 33 32 32 32 32 32 32 33 33 34 33 34 34 34 35 34 35 36 36 37 37
35 35 35 35 35 35 35 35 34 34 35 34 34 34 33 34 34 34 33 33 33 33 32 32 32 32 31 31 32 32 32 31 32 31 31 31 32 31 33 32 33 33 33 33 34 34 34 35 34 35 36 36
34 35 34 35 35 35 34 35 34 34 34 34 34 34 33 33 33 33 32 32 32 32 32 31 30 30 30 31 31 31 31 30 31 31 31 31 32 31 32 31 31 32 32 32 32 33 33 34 34 35 35 35
34 34 35 35 35 35 34 34 34 34 34 34 33 33 32 32 32 31 32 31 31 31 31 30 30 29 29 30 30 30 31 30 30 29 29 29 30 30 30 29 30 30 30 31 32 31 32 33 33 34 34 35
34 34 34 34 33 34 34 33 33 33 33 32 33 32 32 32 31 31 30 31 31 30 30 30 29 29 29 29 30 29 30 29 29 29 28 29 27 29 28 29 29 29 29 29 29 30 32 31 33 33 34 35
33 33 34 34 33 33 32 33 32 33 32 32 32 32 31 31 31 30 30 30 30 30 29 29 28 28 29 28 29 29 29 29 28 28 27 28 28 26 26 27 27 29 28 28 28 29 30 31 32 32 33 34
32 32 33 33 33 32 32 32 32 32 32 32 31 31 31 31 31 29 29 30 29 30 29 28 28 28 27 28 28 28 28 27 28 27 26 26 27 27 25 26 26 27 27 27 27 28 29 30 31 32 33 34
32 32 32 32 33 33 31 31 32 32 31 31 31 30 30 30 30 29 29 29 29 29 29 28 27 27 27 27 27 27 27 26 27 26 26 24 26 26 25 25 25 25 26 26 26 27 28 30 31 32 33 34
31 31 31 31 31 31 31 31 31 31 31 30 30 30 29 29 30 29 28 28 28 28 28 27 27 27 26 27 26 26 26 26 26 25 25 24 24 26 25 25 25 24 25 24 25 26 28 30 31 32 33 34
31 31 32 31 31 31 31 31 31 31 30 31 31 30 30 29 29 29 29 28 28 28 27 26 26 26 26 26 26 25 24 24 24 23 23 23 23 23 24 26 25 25 24 24 25 26 29 30 30 31 32 33
30 31 29 29 30 31 31 31 31 31 30 30 30 29 29 29 29 28 29 28 28 27 27 26 26 25 25 25 25 25 24 24 23 24 23 23 23 22 21 23 25 23 24 22 25 27 26 28 32 32 33 32
31 31 31 31 30 30 30 30 30 29 29 29 29 29 29 29 28 28 28 28 28 27 26 26 25 25 24 24 25 24 24 23 23 22 22 22 21 24 21 20 24 22 24 20 20 20 23 27 32 32 32 31
31 31 30 30 30 30 29 30 31 30 30 30 29 29 28 28 28 27 27 27 27 26 26 25 25 25 24 24 24 23 23 22 21 22 21 21 20 20 22 21 23 21 23 17 21 21 22 21 25 29 29 30
30 30 30 29 29 29 30 29 29 29 29 28 28 27 28 28 28 27 27 27 27 27 26 25 25 25 24 24 24 23 22 22 21 21 21 21 20 20 18 21 19 23 21 21 20 14 19 17 21 16 25 22
30 30 28 28 27 28 27 28 28 27 27 28 28 28 27 27 27 27 27 26 27 27 25 25 25 24 24 23 23 24 22 22 21 21 21 21 19 19 18 17 19 19 22 19 23 18 16 14 15 15 18 20
30 29 28 27 26 26 26 26 26 25 26 27 26 27 29 28 27 27 26 26 26 26 26 25 24 24 24 23 24 24 23 22 21 20 20 21 20 18 19 18 17 16 21 20 20 21 21 20 12 13 15 18
29 28 28 27 28 29 28 28 28 29 29 28 28 28 27 27 27 27 26 26 26 26 26 25 25 24 24 24 23 24 22 21 21 21 20 21 20 19 20 19 15 15 16 19 19 20 19 19 20 19 15 9

ECMWFFLT2_sfc_temp_105.txt.gz
Temp
60 60 60 60 59 59 59 58 58 58 57 57 57 56 56 56 55 55 56 56 56 56 56 57 57 57 57 57 57 57 57 57 57 56 56 56 55 55 55 55 55 55 55 55 54 53 53 53 52 53 54 57
58 58 58 58 57 57 57 57 57 56 56 56 55 55 54 54 53 54 54 54 54 54 54 54 55 56 56 56 56 56 56 56 56 56 55 55 55 55 54 54 54 54 54 54 53 53 53 52 52 53 56 57
57 55 56 56 56 55 55 55 55 55 54 54 53 53 53 53 52 52 52 52 53 53 52 52 53 54 55 55 55 55 55 55 55 55 55 54 54 54 54 54 53 53 53 53 52 52 52 52 52 55 56 56
57 54 54 54 53 53 53 53 53 53 53 52 52 51 52 53 54 54 53 52 52 51 50 49 50 52 54 54 53 53 53 53 54 54 54 54 53 53 53 53 53 53 53 53 53 52 52 52 55 55 56 55
56 54 53 53 52 52 52 52 52 52 53 53 52 53 53 54 56 56 55 54 53 51 50 47 48 49 51 52 52 51 51 51 52 53 53 52 52 52 51 52 53 53 53 53 53 52 52 54 55 54 54 55
57 57 57 57 56 56 55 54 53 54 55 54 55 53 56 56 56 55 54 52 50 52 50 49 46 47 48 49 50 50 49 49 50 51 51 51 51 51 51 52 53 53 52 53 52 52 53 54 54 53 54 54
58 58 58 56 56 54 54 54 55 55 55 55 54 55 56 56 55 55 53 50 48 49 47 47 46 47 48 48 49 49 49 50 50 50 51 50 51 52 51 52 52 52 51 52 52 52 53 53 52 52 53 54
59 59 59 58 57 57 56 55 55 54 54 54 53 54 55 55 53 54 55 48 45 47 53 52 49 49 49 49 49 48 50 50 50 50 51 50 50 51 50 51 51 51 51 51 51 52 52 51 51 51 52 53
58 58 58 58 58 57 57 56 55 55 54 52 53 53 54 52 53 53 54 53 53 53 52 52 52 52 51 51 50 49 50 50 50 50 49 50 49 50 49 49 49 49 49 50 50 50 50 50 50 50 51 51
57 57 57 57 57 57 57 55 55 55 54 53 52 52 53 54 53 53 53 52 51 51 52 51 51 51 51 50 49 50 49 48 49 49 49 48 48 49 49 48 48 48 48 48 48 49 48 48 48 49 50 50
58 58 57 57 57 56 55 55 55 54 54 52 52 52 52 53 53 52 52 51 51 50 51 49 49 50 50 48 48 49 48 46 48 48 48 47 47 48 47 48 48 48 48 48 47 47 47 47 47 48 48 49
57 57 56 54 53 55 54 54 54 53 53 51 51 50 52 52 52 52 51 50 50 49 50 48 48 49 49 48 48 48 48 46 46 47 47 46 46 47 47 47 47 47 47 47 48 46 46 46 46 47 47 48
57 56 55 55 55 53 52 54 53 52 52 52 52 50 50 50 51 51 50 49 49 50 48 48 47 48 47 47 47 47 46 46 45 45 46 45 45 46 46 46 46 46 47 47 47 46 45 45 46 46 47 47
56 55 54 54 54 53 52 53 52 51 52 52 51 50 49 49 50 49 49 48 49 48 47 47 47 47 46 46 46 45 44 45 44 44 44 44 44 44 44 45 46 45 45 46 46 46 45 44 45 46 46 46
56 55 54 53 53 53 53 51 51 52 52 51 51 49 47 48 48 49 48 47 47 48 47 46 46 45 46 45 45 45 43 44 43 44 43 43 42 43 43 44 45 45 44 45 46 46 44 44 45 45 46 46
55 55 54 53 53 52 52 51 52 51 51 49 49 47 46 47 47 47 47 45 46 45 45 45 44 44 43 43 44 44 42 42 43 43 43 43 43 43 44 44 45 45 44 45 45 45 44 45 45 45 46 45
55 54 53 52 52 52 50 51 51 51 50 49 48 47 46 46 46 47 47 45 44 44 44 43 43 43 43 43 42 43 42 41 43 43 43 42 43 43 43 43 43 44 44 44 44 44 44 45 44 45 45 45
54 53 52 53 53 51 50 51 51 50 50 49 48 47 45 45 45 46 46 45 43 45 44 43 42 41 42 42 41 42 42 41 42 41 41 41 41 41 42 41 42 42 41 43 43 43 43 44 44 45 45 45
54 53 52 52 52 51 50 51 51 50 49 48 48 47 45 45 44 44 44 44 44 43 43 43 42 41 41 40 41 41 41 40 41 41 39 40 38 39 40 40 40 40 40 40 40 41 42 42 44 44 44 45
54 53 53 52 50 51 50 50 50 50 49 49 48 47 45 44 44 43 43 43 43 43 43 43 42 41 40 39 41 40 40 40 39 39 38 39 38 36 37 38 38 40 39 40 39 40 41 42 42 43 44 45
52 52 52 52 51 50 49 49 49 49 49 48 47 47 45 43 43 43 42 42 42 43 42 42 41 41 39 39 39 39 39 39 39 38 36 37 38 37 35 36 37 38 38 38 38 39 39 40 41 42 43 45
51 51 52 51 50 49 48 49 49 49 48 47 47 46 45 43 43 42 42 42 42 42 42 41 40 40 38 38 38 38 38 37 38 37 36 35 36 37 35 35 35 35 36 35 35 37 38 39 41 42 43 44
50 50 51 51 49 48 48 48 48 48 47 46 47 45 44 43 43 42 41 41 41 41 40 40 39 38 38 38 38 37 37 37 37 36 35 33 34 36 36 35 35 35 35 34 34 35 38 40 42 42 43 43
48 48 47 46 47 46 46 47 46 46 46 46 46 45 43 42 42 41 41 40 41 40 40 39 38 38 37 37 37 36 36 36 36 33 33 33 33 33 34 36 36 36 34 34 34 36 40 41 41 42 42 43
46 45 45 45 45 44 46 46 47 45 46 46 45 44 43 42 42 41 40 40 40 39 39 39 39 37 36 37 37 36 35 35 33 33 33 33 34 33 32 33 36 34 34 32 34 38 37 38 42 43 42 42
47 47 46 45 45 46 47 46 45 44 45 45 45 43 43 42 42 41 40 40 40 39 39 38 38 37 36 36 36 36 35 34 33 32 32 32 32 35 33 32 34 32 32 31 31 29 31 35 41 43 42 40
46 48 48 48 48 47 47 49 48 47 46 46 44 43 42 42 41 40 39 40 39 38 38 38 38 37 37 36 36 34 33 33 32 33 31 31 31 31 33 33 35 31 32 27 30 31 31 30 31 36 39 40
49 49 49 49 49 49 49 48 48 48 48 45 44 41 42 41 41 40 39 39 38 38 37 38 37 37 36 35 36 35 35 34 33 33 32 32 31 31 29 32 33 34 30 30 29 23 27 26 30 26 34 34
48 48 47 47 47 48 47 48 46 45 43 43 42 41 40 40 40 39 39 38 38 37 37 37 37 37 37 35 35 35 35 35 34 33 32 31 30 30 29 28 31 32 33 29 31 27 25 23 23 25 30 30
47 46 45 44 41 39 40 40 40 39 39 40 40 39 41 41 40 39 39 38 37 37 37 36 36 36 36 35 35 35 35 36 34 32 31 32 31 30 30 29 28 28 33 31 29 29 29 29 23 22 26 26
45 44 45 44 42 42 41 40 42 44 44 43 43 42 42 40 40 39 38 38 38 37 37 36 36 36 36 36 35 36 35 35 34 33 32 32 31 31 31 29 27 27 29 32 31 29 29 29 28 28 24 20

ECMWFFLT2_sfc_temp_108.txt.gz
Temp
61 61 61 61 61 60 60 60 59 59 58 58 58 58 57 57 56 56 57 57 57 57 57 57 58 58 58 58 58 58 57 58 57 57 57 57 57 57 57 56 56 56 56 56 55 55 55 54 54 56 55 48
59 59 59 59 59 58 58 58 58 58 57 57 57 56 55 55 55 55 55 55 55 55 55 55 56 57 57 57 56 56 57 57 57 57 57 56 56 56 56 56 56 56 56 55 55 55 55 55 56 55 55 47
56 57 57 57 57 57 57 57 57 56 56 55 55 55 54 54 54 53 54 53 54 54 53 53 53 55 56 56 56 55 55 56 56 56 56 56 55 55 55 55 56 55 55 55 55 55 55 56 54 55 51 46
53 55 55 55 55 56 55 55 55 55 54 54 54 54 54 54 52 52 51 53 50 52 51 51 50 53 54 55 54 54 53 54 55 55 54 55 55 54 54 55 54 54 55 55 55 55 55 54 53 46 44 45
51 52 53 53 54 54 54 54 54 54 54 53 53 52 54 53 49 46 46 47 46 50 45 49 49 50 52 53 53 53 52 53 54 54 54 54 54 54 53 53 53 52 53 54 54 54 53 52 46 45 45 46
52 51 52 50 49 50 51 53 53 50 48 51 46 54 50 47 47 46 44 44 49 44 45 45 49 49 51 52 52 52 52 52 53 53 53 53 53 53 52 52 45 45 49 52 52 52 51 46 42 44 44 44
52 52 50 49 49 49 51 50 49 47 47 46 47 48 46 47 46 46 44 43 46 46 49 46 49 50 51 51 51 51 51 51 52 52 52 52 52 51 50 44 40 40 40 41 49 48 44 40 41 42 43 44
51 51 50 49 49 49 48 48 48 46 45 46 46 46 46 45 46 47 45 48 48 47 44 45 50 51 50 50 50 50 47 48 49 50 50 50 50 47 43 40 39 40 40 38 40 40 39 38 40 41 42 40
50 51 49 49 48 49 47 47 47 46 45 45 45 46 46 45 46 46 45 44 44 43 43 42 42 42 41 41 40 48 38 41 41 42 40 40 42 38 40 38 40 39 39 38 39 39 38 39 39 39 40 39
51 52 48 49 49 48 49 48 46 47 46 45 44 44 45 45 44 45 45 42 43 42 42 41 40 40 40 39 39 41 39 38 37 38 37 38 39 37 39 37 38 37 39 38 36 37 36 38 38 37 36 37
50 48 49 49 47 47 47 46 46 44 44 45 44 44 45 45 44 44 42 42 41 42 41 39 40 39 39 38 37 39 38 36 37 38 36 37 37 37 37 37 37 37 37 36 36 36 36 36 37 37 37 36
49 48 50 49 48 49 47 46 45 43 43 45 42 44 43 45 42 42 41 41 41 41 39 39 40 39 38 38 37 38 37 37 35 36 36 36 36 37 37 36 36 37 37 36 36 36 35 35 37 37 35 37
48 48 48 47 46 45 49 46 45 43 44 43 43 43 43 44 43 42 40 40 41 39 39 38 39 38 37 38 37 38 36 36 36 36 35 35 34 34 34 35 35 36 36 35 35 36 34 34 34 34 36 36
47 47 46 47 46 44 45 43 45 44 42 42 41 40 42 43 42 40 39 39 40 38 39 38 39 37 37 36 36 35 34 35 34 34 34 34 33 34 33 34 35 36 35 35 35 35 34 34 35 35 34 35
49 48 47 46 45 45 45 44 45 44 43 42 41 41 40 41 41 40 39 38 39 38 38 37 36 36 36 34 35 35 34 34 35 35 35 34 34 33 33 34 35 35 34 34 35 35 34 34 35 35 37 35
49 48 47 46 45 44 45 44 43 42 43 42 39 40 39 40 40 41 38 38 38 38 36 35 36 35 35 34 34 34 34 34 34 36 35 35 35 35 34 34 34 34 33 33 34 34 33 34 36 34 35 34
48 48 47 46 45 45 45 44 44 43 42 41 41 39 38 39 39 40 38 37 37 38 35 35 35 34 34 34 34 34 36 35 35 33 33 33 34 33 33 33 33 35 34 32 33 33 34 35 34 36 36 36
46 46 45 46 45 44 43 42 41 42 42 41 40 39 37 38 39 39 37 36 36 36 35 35 34 34 33 32 34 35 34 32 33 31 31 32 32 35 33 31 31 31 31 32 32 32 32 33 34 35 35 36
48 46 45 43 44 43 42 43 42 40 42 39 39 39 36 37 38 38 37 37 35 36 35 35 33 33 32 33 34 33 33 33 32 32 30 31 29 29 30 30 31 32 30 31 30 32 34 33 34 34 35 35
48 47 46 44 45 43 42 41 43 40 41 41 38 38 37 37 36 37 36 36 36 34 34 33 33 32 33 33 33 32 33 33 31 30 30 31 30 28 28 30 29 30 29 30 30 31 32 32 33 33 33 34
44 47 46 45 44 44 42 40 40 39 40 41 40 38 37 36 37 35 35 35 35 34 34 33 34 32 32 33 32 31 31 31 31 29 32 28 32 30 28 27 28 28 28 29 29 30 30 31 33 33 34 34
46 45 45 43 43 43 42 42 41 40 40 40 37 38 37 37 36 36 35 34 34 33 34 33 33 32 32 32 30 29 30 29 29 29 29 28 28 29 28 26 26 26 27 29 29 29 30 31 31 32 33 34
45 44 45 43 43 42 42 41 40 39 38 37 39 37 37 37 36 36 35 34 35 33 33 32 31 32 31 31 29 29 28 29 29 29 27 27 26 29 28 27 26 27 28 28 28 28 30 31 33 33 33 34
41 41 41 40 40 40 40 40 39 40 38 39 38 38 37 36 36 35 35 34 34 34 34 31 31 31 31 29 29 28 28 28 27 26 27 26 27 26 27 28 27 27 26 26 26 28 30 30 32 33 34 35
41 40 38 38 39 38 40 40 40 40 39 39 38 38 37 36 36 35 35 35 34 33 34 32 30 30 29 29 29 29 29 27 27 27 27 27 28 26 25 25 28 26 27 24 23 26 27 28 32 34 36 34
42 41 41 40 39 39 39 39 39 38 39 39 40 38 37 36 36 35 34 35 34 34 32 31 30 29 29 29 29 29 29 28 29 27 26 26 24 26 26 24 26 26 25 23 22 22 23 24 29 32 33 32
42 42 42 41 40 41 38 41 41 40 39 39 38 38 37 36 36 35 34 34 34 33 33 31 30 30 29 29 30 28 27 27 26 26 26 25 24 25 27 26 27 25 26 20 23 24 21 22 22 27 27 29
43 43 43 42 42 42 42 40 42 41 40 39 38 37 37 36 36 35 34 34 34 33 32 32 31 30 30 29 29 28 27 26 26 26 26 26 26 26 22 24 26 25 25 24 23 14 21 18 22 17 23 22
42 41 40 40 40 39 39 39 38 38 36 38 38 36 35 35 35 34 33 33 33 33 32 32 31 31 30 30 29 29 28 27 27 27 27 27 26 25 24 24 24 25 25 24 25 21 18 13 15 16 20 23
42 41 39 37 36 35 36 35 36 36 36 35 35 35 35 35 35 34 33 33 33 32 32 31 31 31 30 30 29 29 29 29 28 27 27 27 26 25 26 24 23 22 26 25 26 24 23 23 16 16 18 19
42 40 40 39 38 37 37 36 37 38 37 37 36 35 34 34 35 34 33 33 32 32 32 31 31 31 31 30 30 30 29 28 28 28 27 27 26 26 27 25 22 23 24 24 24 25 24 24 24 23 18 13

ECMWFFLT2_sfc_temp_111.txt.gz
Temp
62 62 62 62 62 62 61 61 61 60 60 59 59 59 58 58 58 58 58 58 58 58 58 58 58 58 58 58 58 58 58 58 58 58 58 58 58 58 58 57 57 57 57 57 57 56 56 55 55 54 52 43
61 61 61 61 60 60 60 60 60 59 59 58 58 57 56 56 56 56 57 56 56 56 56 56 57 57 57 57 57 57 57 57 57 57 57 57 57 57 57 56 56 57 56 56 56 55 54 54 54 53 51 42
57 59 59 59 59 59 59 59 59 58 58 57 56 56 55 54 54 54 54 55 55 55 54 53 54 56 57 56 56 56 56 57 56 56 56 56 56 56 55 55 55 55 55 55 55 54 53 52 51 51 45 42
53 57 58 58 58 58 57 57 57 57 56 55 55 54 54 53 49 50 49 52 50 53 52 52 51 54 55 56 55 55 55 56 56 56 56 55 55 54 53 53 53 53 54 54 53 52 51 50 49 41 39 41
51 54 56 56 56 56 56 56 56 55 55 54 54 52 52 49 44 42 42 44 43 50 44 50 51 52 54 55 54 54 53 54 55 55 55 54 53 52 51 50 49 50 51 52 52 51 49 48 40 39 39 40
50 50 50 48 49 50 52 53 53 49 46 50 44 52 47 43 44 41 40 41 47 42 43 45 51 52 52 53 53 53 52 52 53 53 53 53 52 51 50 49 39 40 46 49 50 48 48 40 37 38 38 39
48 47 46 46 47 49 50 49 46 44 45 41 41 42 43 43 42 41 40 40 44 43 48 45 51 51 51 51 51 50 50 50 51 51 51 51 50 49 48 39 35 34 34 36 46 44 39 35 36 36 37 37
47 46 45 45 46 46 45 45 44 43 42 42 42 42 43 41 42 40 39 49 49 48 42 42 48 50 48 48 48 48 43 46 48 48 49 49 48 43 38 34 34 35 33 34 34 35 34 33 34 35 36 34
46 46 45 45 45 45 44 43 43 42 42 41 42 41 43 39 41 40 38 37 38 36 37 36 37 38 37 36 36 43 34 35 36 37 34 35 37 33 35 33 35 34 35 34 33 34 33 35 33 34 34 33
48 47 45 45 45 45 44 43 42 43 42 42 41 41 41 42 40 40 41 38 37 37 38 36 35 36 36 34 34 36 35 33 32 32 33 35 35 34 34 32 34 33 33 32 31 31 31 33 31 32 30 31
48 46 46 45 45 44 43 42 42 41 40 42 40 40 40 41 38 38 37 38 37 36 37 35 34 34 34 33 34 35 33 32 32 32 34 32 32 32 32 32 32 32 31 31 32 31 31 31 30 29 29 30
47 46 46 45 47 45 45 43 42 40 40 42 39 39 40 41 38 38 37 37 36 35 36 36 34 34 33 33 32 34 33 32 32 32 31 32 30 32 31 31 31 32 32 31 30 31 31 30 29 29 29 29
47 46 46 45 44 44 47 42 42 41 41 41 39 40 39 39 37 36 39 36 36 35 36 34 35 33 32 33 32 33 31 30 30 30 30 31 30 29 30 30 30 32 32 31 30 30 31 30 30 29 30 28
45 45 45 45 44 44 45 41 41 41 40 39 38 38 38 39 36 36 37 36 34 35 34 33 33 34 33 32 32 30 30 31 29 30 29 29 29 29 28 30 31 32 31 31 29 30 31 31 31 30 29 29
46 45 45 44 42 44 42 41 42 41 40 38 38 39 37 37 39 37 36 35 34 34 33 33 33 32 32 30 30 31 30 30 32 29 30 31 30 29 28 30 29 30 32 29 30 29 31 31 32 32 32 30
45 45 45 43 42 43 41 42 41 40 39 39 37 38 37 37 36 38 35 35 34 34 33 32 31 31 31 30 29 30 31 31 31 30 31 30 31 30 29 28 29 30 29 28 28 28 29 29 31 30 31 31
45 44 44 42 42 42 41 41 41 39 39 38 38 38 37 36 36 37 36 34 36 36 32 32 31 31 32 30 30 29 32 31 29 29 28 28 29 29 28 29 29 31 27 28 28 27 29 30 30 31 31 32
44 44 43 43 42 42 41 40 40 39 38 38 38 38 36 36 37 36 34 35 34 32 32 33 32 30 30 30 30 30 28 27 27 27 26 29 27 32 28 27 27 27 27 27 27 27 28 28 30 29 30 30
45 44 43 42 41 41 41 40 40 39 38 37 37 37 36 36 37 35 35 35 34 32 32 32 30 30 29 32 29 28 28 27 26 28 27 28 25 25 26 26 28 27 27 26 26 27 28 29 30 29 30 30
45 44 44 42 42 41 40 40 39 38 38 37 36 36 36 36 36 35 35 35 34 32 32 32 31 29 30 31 29 29 29 28 28 26 27 27 25 26 26 28 25 26 26 26 26 27 28 28 29 28 28 30
42 43 43 42 41 41 40 40 39 38 37 37 36 36 36 35 37 35 35 35 34 33 32 31 31 29 31 31 28 28 27 27 29 28 29 27 28 24 26 24 25 25 25 26 26 27 27 27 28 28 29 29
43 43 43 42 40 41 41 40 39 38 37 37 36 36 35 35 36 34 34 34 33 32 32 32 30 30 30 30 28 28 28 27 28 27 26 27 25 25 25 25 24 25 24 27 27 27 26 27 26 27 28 30
42 42 42 41 40 40 40 39 38 38 37 36 36 35 35 35 35 35 33 34 33 32 32 30 30 30 30 30 28 29 28 27 28 28 27 26 25 27 25 25 25 25 26 27 26 26 26 27 27 28 28 31
39 39 39 39 37 37 39 38 37 36 37 36 36 36 35 35 35 34 34 33 32 32 32 30 30 29 29 29 28 28 27 27 27 27 26 26 25 25 26 28 27 24 25 26 23 26 26 26 27 27 29 29
40 38 36 37 38 38 38 39 38 37 36 36 36 35 35 35 35 34 34 33 33 31 33 31 29 29 29 29 28 28 28 28 27 28 27 27 28 26 24 25 25 25 25 23 22 23 23 25 26 28 29 29
42 42 41 40 39 39 38 38 38 37 36 37 37 35 35 35 35 34 33 34 33 32 32 30 29 29 29 29 28 29 29 27 29 28 27 27 24 27 25 25 26 26 24 22 21 21 22 22 25 26 27 26
42 43 42 41 39 39 36 39 40 40 38 37 36 36 35 35 34 33 33 33 33 32 32 31 30 30 29 29 29 28 27 27 27 27 26 26 25 24 25 26 26 26 26 21 23 22 21 19 22 26 24 24
43 42 41 40 38 39 39 37 38 38 36 36 36 35 35 35 34 34 33 33 33 33 32 31 31 30 29 29 29 29 28 27 27 26 26 25 25 26 24 25 25 27 25 22 23 16 18 16 20 15 20 21
41 39 36 36 34 34 34 35 35 34 34 36 36 36 34 34 34 33 33 33 33 33 32 31 31 30 29 29 29 29 28 27 27 27 26 26 25 26 25 25 23 25 25 24 26 22 19 13 13 15 19 21
41 39 38 35 34 33 33 34 33 33 34 34 34 35 36 34 34 34 33 33 32 32 32 31 31 30 29 29 29 29 28 28 27 26 26 26 26 26 25 27 24 22 26 26 26 25 24 22 17 16 19 18
40 38 38 37 37 37 36 35 36 38 38 36 36 36 34 34 34 33 33 32 32 32 32 31 31 30 30 30 29 30 28 27 27 27 26 27 26 26 27 25 23 23 22 24 24 26 25 24 23 21 18 16